Starlink 35558

operational
NORAD ID: 66060 Int'l Des: 2025-235 Owner: SPXS Country: US Constellation: starlink
NOTLE

About Starlink 35558

Description loading...

Live Position

Loading 3D Globe...

Upcoming Passes

Altitude History

Altitude vs Time

uPlot chart will show altitude changes over time

Two-Line Element Set

1 66060U 25235C 25318.83334491 .00038530 00000-0 96910-3 0 9996
2 66060 53.1595 60.6599 0001339 64.3068 154.0482 15.39596844 5391
Epoch: Nov 14, 2025 • Age: 7 hours

Current Status

Altitude 446.8 km
Velocity 7.65 km/s
Sub-Earth Point 14.45°N, 27.94°W
Launch Date Oct 19, 2025
Age 26 days
Type internet

Technical Details

Classification Payload
Mass 575.00 kg
Dry Mass 530.00 kg
Total Mass 575.00 kg
Length 0.30 m
Diameter 4.10 m
Span 29.00 m
Shape Box + pan
Manufacturer SPXS
Bus Type Starlink V2MO
Phase Status In Orbit
Owner/State SPXS/US

Large Constellations

Loading constellations...